sat.trackr.live / text

‹ back to catalog

CONNECTA IOT-2

NORAD 60522 · 2024-149BG

PAYLOAD ACTIVE UNKNOWN

§ Identity

Operator
Country
TURK
Launch date
2024-08-16
Launch site
AFWTR
Launch vehicle
Mass (kg)
RCS (m²)

External: N2YO · Heavens-Above · Gunter

§ Orbital elements

Epoch: 2026-05-25T04:44:24.643680Z

Period
94.50 min
Inclination
97.3838°
Eccentricity
0.0007668
Mean motion
15.23745766 rev/d
Perigee alt
489.3 km
Apogee alt
499.8 km
Semi-major
6,872.7 km
B*
1.7965e-4
RAAN
223.6952°
Arg perigee
55.8972°
Mean anomaly
304.2992°
Rev number
9,839

§ Raw data

CONNECTA IOT-21 60522U 24149BG  26145.19750745  .00004251  00000+0  17965-3 0  99932 60522  97.3838 223.6952 0007668  55.8972 304.2992 15.23745766 98391

JSON: /api/v1/satellites/60522 · /tle

For live sub-satellite position, see the globe view (requires WebGL).

§ Visibility from observer

Set your observer location to see the next 7 days of passes ≥ 10°. The values pass through the URL so the page stays shareable.

No JS? Fill the form by hand. The geolocation button needs JavaScript.

§ Radio — SatNOGS DB

ModeDescriptionDownlinkUplink
GMSK Mode U - GMSK 4k8 AX.25 TLM 401.520 MHz
LoRa Mode U - LoRa (inactive) 869.525 MHz

2 transmitters · refreshed weekly from db.satnogs.org